Flag for U.S.A. Weather past 2 weeks in Downey, California, U.S.A.

Now
74 °F

Clear.


Feels Like: 76 °F
Forecast: 71 / 86 °F
Wind: 3 mph from Northeast

Location: Long Beach Airport

Current Time: Aug 30, 2015 at 10:59:16 PM

Latest Report: Aug 30, 2015 at 9:53 PM


Visibility: 10 mi

Pressure: 29.83 "Hg

Humidity: 69%

Dew point: 63 °F

Location of DowneyLocation

Historic Weather in Downey — Graph

°F

Downey temperature yesterday

Maximum temperature yesterday: 93 °F (at 3:53 PM)
Minimum temperature yesterday: 72 °F (at 4:53 AM)
Average temperature yesterday: 81 °F

Past Weeks' High & Low Weather Summary

 TemperatureHumidityPressure
High96 °F (Aug 16, 2:53 PM)90% (Aug 27, 5:53 AM)29.99 "Hg (Aug 27, 5:53 AM)
Low68 °F (Aug 23, 4:53 AM)27% (Aug 27, 4:53 PM)29.79 "Hg (Aug 16, 5:53 PM)
Average77 °F67%29.89 "Hg
* Reported Aug 15 9:53 PM — Aug 30 9:53 PM, Downey, Weather by CustomWeather, © 2015

Note: Actual official high and low records may vary slightly from our data, if they occured in-between our weather recording intervals... More about our weather records

Advertising

Downey weather history for previous 24 hours

 ConditionsComfort  
Time TempWeatherWind HumidityBarometerVisibility
9:53 PM
Sun, Aug 30
74 °FClear.3 mph69%29.83 "Hg10 mi
8:53 PM76 °FClear.6 mph64%29.83 "Hg10 mi
7:53 PM77 °FSunny.8 mph58%29.80 "Hg10 mi
6:53 PM80 °FSunny.7 mph54%29.80 "Hg10 mi
5:53 PM84 °FSunny.8 mph49%29.82 "Hg10 mi
4:53 PM85 °FSunny.6 mph51%29.82 "Hg10 mi
3:53 PM86 °FSunny.10 mph51%29.83 "Hg10 mi
2:53 PM84 °FPassing clouds.8 mph57%29.85 "Hg10 mi
1:53 PM82 °FSunny.12 mph58%29.88 "Hg10 mi
12:53 PM83 °FSunny.9 mph57%29.90 "Hg10 mi
11:53 AM80 °FSunny.10 mph64%29.91 "Hg10 mi
10:53 AM79 °FSunny.9 mph67%29.91 "Hg10 mi
9:53 AM78 °FSunny.8 mph66%29.91 "Hg10 mi
8:53 AM76 °FPassing clouds.5 mph77%29.90 "Hg10 mi
7:53 AM75 °FPassing clouds.6 mph79%29.90 "Hg10 mi
6:53 AM73 °FPassing clouds.No wind84%29.88 "Hg10 mi
5:53 AM73 °FClear.5 mph84%29.86 "Hg10 mi
4:53 AM73 °FClear.5 mph88%29.86 "Hg10 mi
3:53 AM74 °FClear.6 mph88%29.85 "Hg10 mi
2:53 AM75 °FClear.5 mph82%29.85 "Hg10 mi
1:53 AM75 °FClear.6 mph82%29.85 "Hg10 mi
12:53 AM77 °FClear.No wind66%29.85 "Hg10 mi
11:53 PM
Sat, Aug 29
78 °FClear.6 mph66%29.85 "Hg10 mi
10:53 PM79 °FClear.8 mph62%29.85 "Hg10 mi
Weather by CustomWeather, © 2015

See weather overviewHow to use our weather pages